Location: ?
(35.4554°N, 139.3092°E)
Time: 22:28:23
(UTC+00:00)

Cosmos 1707 - Pass Details

Date: 21 April 2021
Orbit: 514 x 530 km, 82.5° (Epoch: 10 May)

Event Time Altitude Azimuth Distance (km) Brightness Sun altitude
Exits shadow 18:46:28 10° 184° (S) 1,790 5.1 -15.1°
Reaches altitude 10° 18:46:33 10° 184° (S) 1,757 5.1 -15.1°
Maximum altitude 18:50:24 86° 100° (E) 529 2.7 -14.4°
Drops below altitude 10° 18:54:17 10° 8° (N) 1,760 5.9 -13.7°
Sets 18:56:25 0° 8° (N) 2,650 6.8 -13.3°
